FW0327 Weather Reports


time (UTC)temp
C
wind
direction
speed
KPH
gust
KPH
rain 1hr
cm
rain 24hr
cm
rain mn
cm
humidity
%
barometer
mb
20260504045114 6 0.0 0.0 0.00 0.00 0.00 89 1015.3
20260504044035 6 0.0 0.0 0.00 0.00 0.00 89 1015.3
20260504043035 6 0.0 0.0 0.00 0.00 0.00 89 1015.1
20260504042036 6 0.0 0.0 0.00 0.00 0.00 89 1015.2
20260504041036 6 0.0 0.0 0.00 0.00 0.00 89 1015.3
20260504040037 6 0.0 0.0 0.00 0.00 0.00 90 1015.3
20260504035037 6 0.0 0.0 0.00 0.00 0.00 90 1015.4
20260504034037 6 0.0 0.0 0.00 0.00 0.00 90 1015.4
20260504033038 6 0.0 0.0 0.00 0.00 0.00 89 1015.5
20260504032058 7 0.0 0.0 0.00 0.00 0.00 88 1015.5
20260504031038 7 0.0 0.0 0.00 0.00 0.00 87 1015.5
20260504030039 7 0.0 0.0 0.00 0.00 0.00 87 1015.6
20260504025039 7 0.0 0.0 0.00 0.00 0.00 86 1015.4
20260504024100 7 0.0 0.0 0.00 0.00 0.00 86 1015.4
20260504023040 7 0.0 0.0 0.00 0.00 0.00 86 1015.4
20260504022041 8 321 0.0 1.6 0.00 0.00 0.00 85 1015.4
20260504021041 8 0.0 0.0 0.00 0.00 0.00 85 1015.4
20260504020041 8 0.0 0.0 0.00 0.00 0.00 84 1015.4
20260504015042 8 0.0 0.0 0.00 0.00 0.00 83 1015.4
20260504014042 8 269 0.0 1.6 0.00 0.00 0.00 84 1015.3
20260504013042 8 0.0 0.0 0.00 0.00 0.00 83 1015.3
20260504012043 8 295 0.0 1.6 0.00 0.00 0.00 83 1015.3
20260504011043 9 0.0 0.0 0.00 0.00 0.00 82 1015.3
20260504010044 9 296 0.0 3.2 0.00 0.00 0.00 83 1015.3
20260504005105 10 298 0.0 1.6 0.00 0.00 0.00 82 1015.3
20260504004017 10 277 0.0 1.6 0.00 0.00 0.00 81 1015.3
20260504003017 10 0.0 0.0 0.00 0.00 0.00 81 1015.3
20260504002017 10 0.0 0.0 0.00 0.00 0.00 81 1015.3
20260504001018 10 0.0 0.0 0.00 0.00 0.00 79 1015.3
20260504000018 10 0.0 0.0 0.00 0.00 0.00 78 1015.3
20260503235019 11 0.0 0.0 0.00 0.00 0.00 78 1015.5
20260503234019 11 0.0 0.0 0.00 0.00 0.00 75 1015.4
20260503233020 11 0.0 0.0 0.00 0.00 0.00 75 1015.4
20260503232020 11 0.0 0.0 0.00 0.00 0.00 77 1015.4
20260503231041 11 0.0 0.0 0.00 0.00 0.00 76 1015.4
20260503230021 11 0.0 0.0 0.00 0.00 0.00 75 1015.5
20260503225021 11 0.0 0.0 0.00 0.00 0.00 73 1015.5
20260503224022 12 0.0 0.0 0.00 0.00 0.00 71 1015.5
20260503223022 11 0.0 0.0 0.00 0.00 0.00 72 1015.5
20260503222023 11 0.0 0.0 0.00 0.00 0.00 72 1015.4
20260503221023 12 0.0 0.0 0.00 0.00 0.00 70 1015.3
20260503220024 12 0.0 0.0 0.00 0.00 0.00 69 1015.3
20260503215024 12 0.0 0.0 0.00 0.00 0.00 69 1015.4
20260503214024 12 0.0 0.0 0.00 0.00 0.00 69 1015.3
20260503213024 12 0.0 0.0 0.00 0.00 0.00 68 1015.4
20260503212045 12 0.0 0.0 0.00 0.00 0.00 68 1015.2
20260503211106 12 0.0 0.0 0.00 0.00 0.00 67 1015.2
20260503210026 13 0.0 0.0 0.00 0.00 0.00 65 1015.0
20260503205026 13 0.0 0.0 0.00 0.00 0.00 64 1015.1
20260503204027 13 0.0 0.0 0.00 0.00 0.00 62 1015.0
20260503203047 14 0.0 0.0 0.00 0.00 0.00 60 1015.1
20260503202028 15 286 0.0 3.2 0.00 0.00 0.00 58 1015.2
20260503201048 15 306 0.0 1.6 0.00 0.00 0.00 57 1015.2
20260503200028 15 0.0 0.0 0.00 0.00 0.00 54 1015.2
20260503195029 15 0.0 0.0 0.00 0.00 0.00 54 1015.1
20260503194049 16 282 1.6 1.6 0.00 0.00 0.00 53 1015.0
20260503193030 16 268 1.6 3.2 0.00 0.00 0.00 53 1015.0
20260503192030 16 0.0 0.0 0.00 0.00 0.00 53 1015.2
20260503191031 16 295 1.6 8.0 0.00 0.00 0.00 52 1015.2
20260503190031 16 266 1.6 8.0 0.00 0.00 0.00 52 1015.0
20260503185032 16 201 3.2 8.0 0.00 0.00 0.00 52 1015.0
20260503184032 16 301 1.6 9.7 0.00 0.00 0.00 52 1015.2
20260503183034 16 279 4.8 11.3 0.00 0.00 0.00 51 1015.1
20260503182017 17 261 3.2 9.7 0.00 0.00 0.00 48 1015.1
20260503181017 17 282 3.2 9.7 0.00 0.00 0.00 47 1015.1
20260503180033 17 280 3.2 8.0 0.00 0.00 0.00 46 1015.1
20260503175018 18 272 3.2 8.0 0.00 0.00 0.00 44 1015.0
20260503174034 18 285 4.8 12.9 0.00 0.00 0.00 43 1014.9
20260503173055 18 270 4.8 12.9 0.00 0.00 0.00 44 1014.8
20260503172115 18 269 6.4 14.5 0.00 0.00 0.00 43 1015.1
20260503171035 19 270 4.8 14.5 0.00 0.00 0.00 46 1015.1
20260503131029 25 267 4.8 11.3 0.00 0.00 0.00 31 1014.7
20260503081026 20 264 6.4 14.5 0.00 0.00 0.00 35 1016.4
20260503072028 17 270 3.2 9.7 0.00 0.00 0.00 42 1016.4
20260503071048 16 246 1.6 4.8 0.00 0.00 0.00 44 1016.4
20260503055032 11 0.0 0.0 0.00 0.00 0.00 81 1016.4
20260503054032 10 0.0 0.0 0.00 0.00 0.00 83 1016.2
20260503053032 10 290 0.0 1.6 0.00 0.00 0.00 84 1016.2
20260503052033 10 0.0 0.0 0.00 0.00 0.00 85 1016.3
20260503051053 10 0.0 0.0 0.00 0.00 0.00 85 1016.1